Regional Weather Roundup
Issued by NWS

Home | Current Version | Previous Version | Text Only | Print | Product List | Glossary On
Versions: 1 2 3 4 5 6 7 8 9 10 11 12 13 14 15 16 17 18 19 20 21 22 23 24 25 26 27 28 29 30 31 32 33 34 35 36 37 38 39 40 41 42 43 44 45 46 47 48 49 50
000
ASUS43 KMPX 141901
RWRMN
WEATHER ROUNDUP FOR MINNESOTA
NATIONAL WEATHER SERVICE TWIN CITIES/CHANHASSEN MN
100 PM CST THU DEC 14 2017


NOTE: "FAIR" INDICATES FEW OR NO CLOUDS BELOW 12,000 FEET WITH NO
SIGNIFICANT WEATHER AND/OR OBSTRUCTIONS TO VISIBILITY. N/A MEANS
CURRENT SKY AND/OR WEATHER CONDITIONS ARE NOT AVAILABLE.

MNZ060>063-068>070-142000-
   Twin Cities Metro

CITY           SKY/WX    TMP DP  RH WIND       PRES   REMARKS
TWIN CITIES    CLOUDY    21  16  81 W8        30.04S WCI  11
ST PAUL        CLOUDY    21  16  81 W8        30.05S WCI  11
CRYSTAL        FLURRIES  21  14  74 W9        30.02F WCI  11
BLAINE         LGT SNOW  23  18  80 W8        30.01F WCI  14
LAKEVILLE      CLOUDY    19  18  93 W5        30.03S WCI  13
EDEN PRAIRIE   CLOUDY    21  15  78 SW7       30.03S WCI  12
SOUTH ST PAUL  CLOUDY    22  16  76 W6        30.03F WCI  15
LAKE ELMO      FLURRIES  23  18  80 W6        30.03F WCI  16
$$
MNZ001>005-007-008-013>017-022>024-027-028-142000-
   Northwest Minnesota

CITY           SKY/WX    TMP DP  RH WIND       PRES   REMARKS
BEMIDJI        FLURRIES  16  10  78 NW13      29.97F WCI   2
HALLOCK        FLURRIES  18  12  79 N14       30.06S WCI   4
ROSEAU         FLURRIES  14   9  79 W9        30.01S WCI   2
WARROAD        LGT SNOW  12   9  85 NW9       30.00S WCI   0
CROOKSTON      CLOUDY    18  16  93 N15       30.08S FOG     WCI   3
FOSSTON        LGT SNOW  16  12  86 N13       30.02S WCI   2
DETROIT LAKES  LGT SNOW  21  18  86 N18       30.03S WCI   6
MOORHEAD       DRIZZLE   23  18  80 N14       30.08S WCI  11
PARK RAPIDS    LGT SNOW  19  14  81 NW14      29.98S WCI   6
MAHNOMEN       LGT SNOW  18  14  84 NW22G29   30.02S WCI   1
$$
MNZ006-009>011-018-025>026-142000-
   North Central Minnesota

CITY           SKY/WX    TMP DP  RH WIND       PRES   REMARKS
BAUDETTE       FLURRIES  11   6  81 NW12      29.97S WCI  -3
FLAG ISLAND    FLURRIES  12   7  79 NW13      29.96F WCI  -3
INTL FALLS     CLOUDY    15   7  70 W9        29.94F WCI   3
WASKISH        FLURRIES  14   9  79 W10       29.98S WCI   1
BIG FORK       FLURRIES  16   9  73 NW6       29.94F WCI   7
LONGVILLE      LGT SNOW  18  12  79 W3        29.97F
GRAND RAPIDS   FLURRIES  18  11  74 W7        29.97F WCI   9
CRANE LAKE     FLURRIES  14   9  79 NW3       29.95F
ORR            MIX PCPN  12   7  79 NW5       29.90F WCI   4
COOK           FLURRIES  14   9  79 W6        29.94S WCI   5
WALKER         LGT SNOW  17  12  84 NW8       29.98S WCI   6
$$
MNZ012-019>021-037-142000-
   Northeast Minnesota

CITY           SKY/WX    TMP DP  RH WIND       PRES   REMARKS
DULUTH         LGT SNOW  16  10  77 W10       29.92F WCI   4
ELY            PTSUNNY   14   7  73 W7        29.90F WCI   4
HIBBING        CLOUDY    15   8  73 VRB6      29.93F WCI   6
EVELETH        FLURRIES  15   7  70 W5        29.94S WCI   7
DULUTH HARBOR  FLURRIES  19  14  79 W9        29.99F WCI   9
TWO HARBORS    FLURRIES  25  16  68 SW8       29.92S WCI  16
GRAND MARAIS     N/A     21  12  68 W5        29.95F WCI  15
G MARAIS ARPRT LGT SNOW  14   7  73 SW3       29.86R
$$
MNZ029>031-032-039>041-046>048-054>057-064-142000-
   West Central Minnesota

CITY           SKY/WX    TMP DP  RH WIND       PRES   REMARKS
FERGUS FALLS   MIX PCPN  23  18  80 N13G23    30.08S WCI  11
WHEATON        LGT SNOW  25  19  80 NW10      30.09S WCI  15
MORRIS         CLOUDY    25  19  80 NW12      30.03F WCI  14
ALEXANDRIA     FLURRIES  22  16  78 NW10      30.01F WCI  11
ELBOW LAKE     CLOUDY    22  19  87 W13       30.04S WCI  10
WADENA         MIX PCPN  19  14  79 NW13      30.00S WCI   7
GLENWOOD       CLOUDY    21  18  86 NW12      30.01F WCI   9
APPLETON       CLOUDY    27  19  74 NW8       30.05F WCI  18
BENSON         CLOUDY    25  18  74 N10       30.05F WCI  15
ORTONVILLE     CLOUDY    25  19  80 NW6       30.06S HAZE    WCI  18
MADISON        CLOUDY    28  21  74 N8        30.05S WCI  20
WILLMAR        FAIR      25  19  80 NW9       30.03F WCI  15
$$
MNZ033>034-036-042>043-049>051-058-059-142000-
   Central Minnesota

CITY           SKY/WX    TMP DP  RH WIND       PRES   REMARKS
ST CLOUD       CLOUDY    21  16  81 W7        30.01F WCI  12
SAUK CENTRE    FAIR      21  15  78 NW12      30.01F WCI   9
PAYNESVILLE    CLOUDY    21  17  84 NW8       30.03S WCI  12
AITKIN         FLURRIES  18  10  73 W7        29.96F WCI   8
PINE RIVER     FLURRIES  18  10  73 W7        30.01F WCI   8
BRAINERD       CLOUDY    19  12  74 NW9       29.98F WCI   8
STAPLES        FLURRIES  19  14  79 NW10      29.99F WCI   8
LONG PRAIRIE   CLOUDY    19  14  79 W9        30.01F WCI   9
LITTLE FALLS   CLOUDY    21   9  58 NW8       30.01S WCI  12
LITCHFIELD     CLOUDY    21  18  86 W7        30.02F WCI  13
BUFFALO        CLOUDY    21  17  83 W7        30.03F WCI  13
MAPLE LAKE     CLOUDY    22  18  85 W6        30.02F WCI  14
HUTCHINSON     CLOUDY    21  18  87 CALM      30.03F
$$
MNZ037-044-045-052-053-142000-
   East Central Minnesota

CITY           SKY/WX    TMP DP  RH WIND       PRES   REMARKS
PRINCETON      CLOUDY    21  16  79 W8        30.00S WCI  12
MORA           CLOUDY    19  14  79 W7        30.01S WCI  10
CAMBRIDGE      FLURRIES  21  14  73 W6        30.00F WCI  14
RUSH CITY      LGT SNOW  20  15  81 W3        30.01S
MOOSE LAKE     CLOUDY    19  10  68 W7        29.96S WCI  10
HINCKLEY       FLURRIES  21  14  73 W6        29.99S WCI  14
CLOQUET        FLURRIES  18   9  68 W9        29.95R WCI   6
MCGREGOR       CLOUDY    19  12  73 NW9       29.97F WCI   9
$$
MNZ071>073-080-081-089-090-097-098-142000-
   Southwest Minnesota

CITY           SKY/WX    TMP DP  RH WIND       PRES   REMARKS
MONTEVIDEO     CLOUDY    27  21  80 N6        30.04F WCI  20
GRANITE FALLS  CLOUDY    28  22  78 NW10      30.07S WCI  18
CANBY          CLOUDY    28  24  82 W6        30.06S WCI  22
MARSHALL       FLURRIES  27  22  81 NW9       30.05S WCI  18
REDWOOD FALLS  CLOUDY    26  32 100 MISG      30.05S
OLIVIA         CLOUDY    27  19  74 NW9       30.03F WCI  17
PIPESTONE      CLOUDY    30  25  80 N6        30.01S WCI  24
WINDOM           N/A     30  16  55 NW15      30.02S WCI  19
WORTHINGTON    FLURRIES  31  24  75 N16       30.02F WCI  20
JACKSON        CLOUDY    30  23  74 MISG      30.01F
SLAYTON        CLOUDY    30  23  74 NW12      30.03S WCI  20
$$
MNZ065>067-074>077-082>085-091>093-142000-
   South Central Minnesota

CITY           SKY/WX    TMP DP  RH WIND       PRES   REMARKS
MANKATO        CLOUDY    21  18  88 W9        30.04F WCI  11
NEW ULM        FLURRIES  23  18  80 NW10      30.05R WCI  12
ST JAMES       CLOUDY    27  19  74 NW10      30.05S WCI  17
FAIRMONT       CLOUDY    26  20  77 NW9       30.03F WCI  17
GLENCOE        CLOUDY    22  19  87 W8        30.04S WCI  13
FARIBAULT      CLOUDY    21  18  86 SW3       30.03S
OWATONNA       CLOUDY    23  18  80 W7        30.02S WCI  15
WASECA         CLOUDY    23  19  86 W10       30.04F WCI  12
ALBERT LEA     CLOUDY    23  16  74 W5        30.02F WCI  17
$$
MNZ078>079-086>088-094>096-142000-
   Southeast Minnesota

CITY           SKY/WX    TMP DP  RH WIND       PRES   REMARKS
ROCHESTER      MOSUNNY   22  16  78 W9        30.01F WCI  12
RED WING       CLOUDY    25  14  63 W7        30.03S WCI  17
STANTON        CLOUDY    24  17  77 W6        30.02F WCI  16
DODGE CENTER   PTSUNNY   21  16  79 SW8       30.01S WCI  12
WINONA         CLOUDY    28  16  59 SW5       30.05F WCI  23
AUSTIN         CLOUDY    21  16  79 CALM      30.01F
PRESTON        PTSUNNY   23  13  65 SW8       30.01F WCI  14
$$
ABBREVIATIONS USED IN REMARKS
   TC - TEMPERATURES IN CELSIUS
  WCI - WIND CHILL INDEX
   HX - HEAT INDEX
  VSB - VISIBILITY
$$




USA.gov is the U.S. government's official web portal to all federal, state and local government web resources and services.